Hourly Weather Dromore

Today, 26 January, Tuesday

Time Temperature Precipitation Wind Pressure Humidity
00:00 -1°C° 0 mm 3 mps 748 mmHg 90%
01:00 -1°C° 0 mm 3 mps 748 mmHg 90%
02:00 -1°C° 0 mm 3 mps 748 mmHg 90%
03:00 -1°C° 0 mm 3 mps 748 mmHg 90%
04:00 0°C° 0.1 mm 3 mps 747 mmHg 92%
05:00 +1°C° 0.1 mm 3 mps 747 mmHg 93%
06:00 +1°C° 0.1 mm 3 mps 746 mmHg 95%
07:00 +1°C° 1.5 mm 4 mps 746 mmHg 95%
08:00 +1°C° 1.5 mm 5 mps 745 mmHg 96%
09:00 +2°C° 1.5 mm 6 mps 744 mmHg 96%
10:00 +3°C° 0.6 mm 6 mps 744 mmHg 96%
11:00 +3°C° 0.6 mm 5 mps 744 mmHg 96%
12:00 +5°C° 0.6 mm 5 mps 743 mmHg 96%
13:00 +5°C° 0.2 mm 4 mps 743 mmHg 96%
14:00 +5°C° 0.2 mm 4 mps 743 mmHg 96%
15:00 +5°C° 0.2 mm 3 mps 743 mmHg 97%
16:00 +5°C° 0 mm 3 mps 743 mmHg 96%
17:00 +5°C° 0 mm 3 mps 743 mmHg 95%
18:00 +5°C° 0 mm 3 mps 744 mmHg 95%
19:00 +5°C° 0 mm 3 mps 744 mmHg 95%
20:00 +4°C° 0 mm 3 mps 744 mmHg 95%
21:00 +3°C° 0 mm 4 mps 745 mmHg 95%
22:00 +3°C° 0 mm 4 mps 745 mmHg 95%
23:00 +3°C° 0 mm 4 mps 745 mmHg 96%

Tomorrow, 27 January, Wednesday

Time Temperature Precipitation Wind Pressure Humidity
00:00 +3°C° 0 mm 4 mps 746 mmHg 96%
01:00 +3°C° 0 mm 4 mps 746 mmHg 96%
02:00 +3°C° 0 mm 3 mps 746 mmHg 97%
03:00 +3°C° 0 mm 3 mps 746 mmHg 97%
04:00 +3°C° 0.5 mm 3 mps 746 mmHg 97%
05:00 +3°C° 0.5 mm 3 mps 746 mmHg 97%
06:00 +4°C° 0.5 mm 3 mps 746 mmHg 96%
07:00 +5°C° 0.5 mm 2 mps 746 mmHg 96%
08:00 +5°C° 0.5 mm 2 mps 746 mmHg 96%
09:00 +5°C° 0.5 mm 2 mps 747 mmHg 96%
10:00 +5°C° 0.2 mm 2 mps 747 mmHg 96%
11:00 +7°C° 0.2 mm 1 mps 747 mmHg 96%
12:00 +7°C° 0.2 mm 1 mps 747 mmHg 96%
13:00 +7°C° 0.1 mm 1 mps 747 mmHg 96%
14:00 +8°C° 0.1 mm 1 mps 747 mmHg 96%
15:00 +8°C° 0.1 mm 1 mps 747 mmHg 97%
16:00 +7°C° 0.1 mm 2 mps 746 mmHg 97%
17:00 +7°C° 0.1 mm 3 mps 746 mmHg 97%
18:00 +6°C° 0.1 mm 5 mps 746 mmHg 98%
19:00 +5°C° 1.6 mm 6 mps 745 mmHg 97%
20:00 +5°C° 1.6 mm 7 mps 744 mmHg 97%
21:00 +5°C° 1.6 mm 8 mps 743 mmHg 97%
22:00 +5°C° 4.3 mm 8 mps 743 mmHg 96%
23:00 +5°C° 4.3 mm 9 mps 742 mmHg 96%

Day after tomorrow, 28 January, Thursday

Time Temperature Precipitation Wind Pressure Humidity
00:00 +3°C° 4.3 mm 10 mps 741 mmHg 96%
01:00 +3°C° 2.8 mm 9 mps 740 mmHg 96%
02:00 +4°C° 2.8 mm 8 mps 739 mmHg 96%
03:00 +4°C° 2.8 mm 7 mps 738 mmHg 97%
04:00 +6°C° 1.1 mm 5 mps 738 mmHg 97%
05:00 +6°C° 1.1 mm 4 mps 738 mmHg 97%
06:00 +8°C° 1.1 mm 3 mps 738 mmHg 97%
07:00 +8°C° 0.1 mm 3 mps 738 mmHg 97%
08:00 +8°C° 0.1 mm 3 mps 738 mmHg 97%
09:00 +8°C° 0.1 mm 3 mps 738 mmHg 96%
10:00 +8°C° 0.1 mm 3 mps 738 mmHg 95%
11:00 +7°C° 0.1 mm 4 mps 738 mmHg 93%
12:00 +8°C° 0.1 mm 4 mps 739 mmHg 91%
13:00 +8°C° 0 mm 4 mps 738 mmHg 91%
14:00 +9°C° 0 mm 3 mps 738 mmHg 90%
15:00 +9°C° 0 mm 3 mps 737 mmHg 90%
16:00 +8°C° 0.7 mm 2 mps 737 mmHg 93%
17:00 +8°C° 0.7 mm 2 mps 737 mmHg 95%
18:00 +7°C° 0.7 mm 2 mps 737 mmHg 97%
19:00 +7°C° 1.8 mm 3 mps 737 mmHg 96%
20:00 +7°C° 1.8 mm 3 mps 738 mmHg 94%
21:00 +6°C° 1.8 mm 4 mps 738 mmHg 93%
22:00 +5°C° 0 mm 4 mps 738 mmHg 93%
23:00 +5°C° 0 mm 4 mps 738 mmHg 94%

29 January, Friday

Time Temperature Precipitation Wind Pressure Humidity
00:00 +4°C° 0 mm 3 mps 739 mmHg 95%
01:00 +4°C° 0 mm 3 mps 739 mmHg 95%
02:00 +4°C° 0 mm 3 mps 739 mmHg 96%
03:00 +4°C° 0 mm 4 mps 739 mmHg 96%
04:00 +5°C° 0 mm 4 mps 739 mmHg 95%
05:00 +5°C° 0 mm 4 mps 740 mmHg 94%
06:00 +5°C° 0 mm 4 mps 740 mmHg 92%
07:00 +5°C° 0.2 mm 4 mps 740 mmHg 93%
08:00 +5°C° 0.2 mm 5 mps 740 mmHg 93%
09:00 +5°C° 0.2 mm 5 mps 741 mmHg 93%
10:00 +6°C° 0 mm 5 mps 741 mmHg 91%
11:00 +6°C° 0 mm 5 mps 742 mmHg 89%
12:00 +7°C° 0 mm 6 mps 743 mmHg 87%
13:00 +7°C° 0.1 mm 5 mps 743 mmHg 87%
14:00 +7°C° 0.1 mm 4 mps 743 mmHg 86%
15:00 +7°C° 0.1 mm 4 mps 743 mmHg 85%
16:00 +7°C° 0 mm 3 mps 744 mmHg 87%
17:00 +5°C° 0 mm 2 mps 744 mmHg 89%
18:00 +4°C° 0 mm 2 mps 744 mmHg 91%
19:00 +4°C° 0 mm 2 mps 744 mmHg 91%
20:00 +4°C° 0 mm 2 mps 744 mmHg 92%
21:00 +3°C° 0 mm 2 mps 744 mmHg 92%
22:00 +4°C° 0 mm 1 mps 744 mmHg 91%
23:00 +4°C° 0 mm 1 mps 744 mmHg 91%

30 January, Saturday

Time Temperature Precipitation Wind Pressure Humidity
00:00 +4°C° 0 mm 1 mps 744 mmHg 90%
01:00 +4°C° 0 mm 1 mps 744 mmHg 89%
02:00 +3°C° 0 mm 0 mps 744 mmHg 88%
03:00 +3°C° 0 mm 0 mps 744 mmHg 88%
04:00 +4°C° 0 mm 1 mps 744 mmHg 88%
05:00 +4°C° 0 mm 1 mps 743 mmHg 89%
06:00 +4°C° 0 mm 1 mps 743 mmHg 89%
07:00 +4°C° 0 mm 1 mps 743 mmHg 90%
08:00 +5°C° 0 mm 1 mps 744 mmHg 90%
09:00 +4°C° 0 mm 2 mps 744 mmHg 91%
10:00 +5°C° 0.4 mm 2 mps 744 mmHg 92%
11:00 +4°C° 0.4 mm 3 mps 743 mmHg 94%
12:00 +5°C° 0.4 mm 3 mps 743 mmHg 95%
13:00 +5°C° 0.7 mm 3 mps 743 mmHg 95%
14:00 +5°C° 0.7 mm 4 mps 743 mmHg 95%
15:00 +4°C° 0.7 mm 4 mps 742 mmHg 95%
16:00 +4°C° 0.5 mm 4 mps 742 mmHg 95%
17:00 +3°C° 0.5 mm 5 mps 742 mmHg 95%
18:00 +3°C° 0.5 mm 5 mps 741 mmHg 95%
19:00 +3°C° 0.8 mm 5 mps 740 mmHg 95%
20:00 +4°C° 0.8 mm 6 mps 739 mmHg 96%
21:00 +4°C° 0.8 mm 6 mps 739 mmHg 96%
22:00 +4°C° 1 mm 6 mps 737 mmHg 95%
23:00 +4°C° 1 mm 6 mps 736 mmHg 95%

31 January, Sunday

Time Temperature Precipitation Wind Pressure Humidity
00:00 +4°C° 1 mm 7 mps 735 mmHg 95%
01:00 +4°C° 2.7 mm 8 mps 733 mmHg 94%
02:00 +3°C° 2.7 mm 9 mps 731 mmHg 94%
03:00 +3°C° 2.7 mm 11 mps 729 mmHg 94%
04:00 +5°C° 2.6 mm 10 mps 728 mmHg 95%
05:00 +5°C° 2.6 mm 9 mps 726 mmHg 95%
06:00 +5°C° 2.6 mm 8 mps 724 mmHg 95%
07:00 +5°C° 1.3 mm 7 mps 723 mmHg 96%
08:00 +7°C° 1.3 mm 5 mps 723 mmHg 97%
09:00 +7°C° 1.3 mm 4 mps 722 mmHg 97%
10:00 +8°C° 0.4 mm 3 mps 723 mmHg 97%
11:00 +8°C° 0.4 mm 3 mps 723 mmHg 98%
12:00 +8°C° 0.4 mm 3 mps 723 mmHg 98%
13:00 +9°C° 0.4 mm 3 mps 723 mmHg 97%
14:00 +9°C° 0.4 mm 3 mps 723 mmHg 96%
15:00 +9°C° 0.4 mm 3 mps 724 mmHg 95%
16:00 +8°C° 0.2 mm 4 mps 724 mmHg 94%
17:00 +7°C° 0.2 mm 4 mps 725 mmHg 92%
18:00 +6°C° 0.2 mm 5 mps 725 mmHg 91%
19:00 +6°C° 0 mm 5 mps 726 mmHg 91%
20:00 +5°C° 0 mm 6 mps 727 mmHg 90%
21:00 +5°C° 0 mm 6 mps 728 mmHg 90%
22:00 +5°C° 0 mm 6 mps 729 mmHg 89%
23:00 +4°C° 0 mm 6 mps 729 mmHg 89%
Show more